Year,Month,Day,Hour,Minute,Value (Times are PST for temperature in C)
2008,02,24,00,00,5.60
2008,02,24,00,01,5.60
2008,02,24,00,02,5.60
2008,02,24,00,03,5.60
2008,02,24,00,04,5.60
2008,02,24,00,05,5.50
2008,02,24,00,06,5.50
2008,02,24,00,07,5.50
2008,02,24,00,08,5.50
2008,02,24,00,09,5.60
2008,02,24,00,10,5.60
2008,02,24,00,11,5.60
2008,02,24,00,12,5.60
2008,02,24,00,13,5.60
2008,02,24,00,14,5.70
2008,02,24,00,15,5.70
2008,02,24,00,16,5.70
2008,02,24,00,17,5.70
2008,02,24,00,18,5.80
2008,02,24,00,19,5.80
2008,02,24,00,20,5.80
2008,02,24,00,21,5.80
2008,02,24,00,22,5.90
2008,02,24,00,23,5.80
2008,02,24,00,24,5.80
2008,02,24,00,25,5.90
2008,02,24,00,26,5.90
2008,02,24,00,27,5.90
2008,02,24,00,28,5.90
2008,02,24,00,29,5.90
2008,02,24,00,30,5.90
2008,02,24,00,31,5.80
2008,02,24,00,32,5.90
2008,02,24,00,33,5.90
2008,02,24,00,34,5.90
2008,02,24,00,35,5.90
2008,02,24,00,36,5.90
2008,02,24,00,37,5.90
2008,02,24,00,38,5.90
2008,02,24,00,39,5.90
2008,02,24,00,40,5.90
2008,02,24,00,41,5.90
2008,02,24,00,42,5.90
2008,02,24,00,43,5.90
2008,02,24,00,44,5.90
2008,02,24,00,45,5.90
2008,02,24,00,46,5.90
2008,02,24,00,47,5.90
2008,02,24,00,48,5.90
2008,02,24,00,49,5.90
2008,02,24,00,50,5.90
2008,02,24,00,51,5.90
2008,02,24,00,52,5.90
2008,02,24,00,53,5.90
2008,02,24,00,54,5.90
2008,02,24,00,55,5.90
2008,02,24,00,56,5.90
2008,02,24,00,57,5.90
2008,02,24,00,58,5.90
2008,02,24,00,59,5.90
2008,02,24,01,00,5.90
2008,02,24,01,01,5.90
2008,02,24,01,02,5.80
2008,02,24,01,03,5.80
2008,02,24,01,04,5.80
2008,02,24,01,05,5.80
2008,02,24,01,06,5.80
2008,02,24,01,07,5.80
2008,02,24,01,08,5.80
2008,02,24,01,09,5.80
2008,02,24,01,10,5.80
2008,02,24,01,11,5.80
2008,02,24,01,12,5.80
2008,02,24,01,13,5.80
2008,02,24,01,14,5.90
2008,02,24,01,15,5.90
2008,02,24,01,16,5.90
2008,02,24,01,17,5.90
2008,02,24,01,18,5.80
2008,02,24,01,19,5.80
2008,02,24,01,20,5.80
2008,02,24,01,21,5.80
2008,02,24,01,22,5.80
2008,02,24,01,23,5.90
2008,02,24,01,24,5.80
2008,02,24,01,25,5.80
2008,02,24,01,26,5.90
2008,02,24,01,27,5.90
2008,02,24,01,28,5.90
2008,02,24,01,29,5.90
2008,02,24,01,30,5.90
2008,02,24,01,31,5.90
2008,02,24,01,32,5.80
2008,02,24,01,33,5.60
2008,02,24,01,34,5.40
2008,02,24,01,35,5.10
2008,02,24,01,36,5.00
2008,02,24,01,37,4.90
2008,02,24,01,38,4.80
2008,02,24,01,39,4.60
2008,02,24,01,40,4.50
2008,02,24,01,41,4.40
2008,02,24,01,42,4.40
2008,02,24,01,43,4.40
2008,02,24,01,44,4.40
2008,02,24,01,45,4.40
2008,02,24,01,46,4.40
2008,02,24,01,47,4.30
2008,02,24,01,48,4.30
2008,02,24,01,49,4.20
2008,02,24,01,50,4.10
2008,02,24,01,51,4.10
2008,02,24,01,52,4.10
2008,02,24,01,53,4.00
2008,02,24,01,54,3.90
2008,02,24,01,55,3.80
2008,02,24,01,56,3.90
2008,02,24,01,57,4.00
2008,02,24,01,58,4.10
2008,02,24,01,59,4.20
2008,02,24,02,00,4.30
2008,02,24,02,01,4.40
2008,02,24,02,02,4.50
2008,02,24,02,03,4.60
2008,02,24,02,04,4.80
2008,02,24,02,05,4.80
2008,02,24,02,06,4.90
2008,02,24,02,07,5.00
2008,02,24,02,08,5.00
2008,02,24,02,09,5.10
2008,02,24,02,10,5.10
2008,02,24,02,11,5.10
2008,02,24,02,12,5.10
2008,02,24,02,13,5.10
2008,02,24,02,14,5.20
2008,02,24,02,15,5.20
2008,02,24,02,16,5.20
2008,02,24,02,17,5.20
2008,02,24,02,18,5.20
2008,02,24,02,19,5.30
2008,02,24,02,20,5.30
2008,02,24,02,21,5.30
2008,02,24,02,22,5.30
2008,02,24,02,23,5.30
2008,02,24,02,24,5.30
2008,02,24,02,25,5.30
2008,02,24,02,26,5.30
2008,02,24,02,27,5.30
2008,02,24,02,28,5.30
2008,02,24,02,29,5.20
2008,02,24,02,30,5.20
2008,02,24,02,31,5.20
2008,02,24,02,32,5.20
2008,02,24,02,33,5.20
2008,02,24,02,34,5.10
2008,02,24,02,35,5.10
2008,02,24,02,36,5.20
2008,02,24,02,37,5.20
2008,02,24,02,38,5.20
2008,02,24,02,39,5.20
2008,02,24,02,40,5.30
2008,02,24,02,41,5.20
2008,02,24,02,42,5.20
2008,02,24,02,43,5.20
2008,02,24,02,44,5.20
2008,02,24,02,45,5.20
2008,02,24,02,46,5.20
2008,02,24,02,47,5.20
2008,02,24,02,48,5.20
2008,02,24,02,49,5.30
2008,02,24,02,50,5.30
2008,02,24,02,51,5.40
2008,02,24,02,52,5.50
2008,02,24,02,53,5.50
2008,02,24,02,54,5.60
2008,02,24,02,55,5.60
2008,02,24,02,56,5.70
2008,02,24,02,57,5.70
2008,02,24,02,58,5.70
2008,02,24,02,59,5.80
2008,02,24,03,00,5.80
2008,02,24,03,01,5.90
2008,02,24,03,02,5.90
2008,02,24,03,03,5.90
2008,02,24,03,04,5.90
2008,02,24,03,05,5.90
2008,02,24,03,06,5.90
2008,02,24,03,07,5.90
2008,02,24,03,08,5.90
2008,02,24,03,09,5.90
2008,02,24,03,10,5.90
2008,02,24,03,11,5.90
2008,02,24,03,12,5.90
2008,02,24,03,13,5.90
2008,02,24,03,14,5.90
2008,02,24,03,15,6.00
2008,02,24,03,16,6.00
2008,02,24,03,17,6.10
2008,02,24,03,18,6.10
2008,02,24,03,19,6.10
2008,02,24,03,20,6.20
2008,02,24,03,21,6.20
2008,02,24,03,22,6.20
2008,02,24,03,23,6.20
2008,02,24,03,24,6.20
2008,02,24,03,25,6.20
2008,02,24,03,26,6.20
2008,02,24,03,27,6.20
2008,02,24,03,28,6.20
2008,02,24,03,29,6.30
2008,02,24,03,30,6.30
2008,02,24,03,31,6.30
2008,02,24,03,32,6.30
2008,02,24,03,33,6.30
2008,02,24,03,34,6.30
2008,02,24,03,35,6.30
2008,02,24,03,36,6.30
2008,02,24,03,37,6.30
2008,02,24,03,38,6.40
2008,02,24,03,39,6.40
2008,02,24,03,40,6.40
2008,02,24,03,41,6.30
2008,02,24,03,42,6.30
2008,02,24,03,43,6.30
2008,02,24,03,44,6.30
2008,02,24,03,45,6.20
2008,02,24,03,46,6.20
2008,02,24,03,47,6.20
2008,02,24,03,48,6.20
2008,02,24,03,49,6.20
2008,02,24,03,50,6.20
2008,02,24,03,51,6.20
2008,02,24,03,52,6.20
2008,02,24,03,53,6.30
2008,02,24,03,54,6.20
2008,02,24,03,55,6.20
2008,02,24,03,56,6.10
2008,02,24,03,57,6.00
2008,02,24,03,58,6.00
2008,02,24,03,59,5.80
2008,02,24,04,00,5.70
2008,02,24,04,01,5.70
2008,02,24,04,02,5.70
2008,02,24,04,03,5.70
2008,02,24,04,04,5.80
2008,02,24,04,05,5.80
2008,02,24,04,06,5.80
2008,02,24,04,07,5.70
2008,02,24,04,08,5.70
2008,02,24,04,09,5.60
2008,02,24,04,10,5.60
2008,02,24,04,11,5.60
2008,02,24,04,12,5.50
2008,02,24,04,13,5.30
2008,02,24,04,14,5.00
2008,02,24,04,15,4.70
2008,02,24,04,16,4.50
2008,02,24,04,17,4.40
2008,02,24,04,18,4.20
2008,02,24,04,19,4.00
2008,02,24,04,20,4.00
2008,02,24,04,21,3.90
2008,02,24,04,22,3.90
2008,02,24,04,23,4.00
2008,02,24,04,24,4.00
2008,02,24,04,25,4.10
2008,02,24,04,26,4.10
2008,02,24,04,27,4.10
2008,02,24,04,28,4.10
2008,02,24,04,29,4.10
2008,02,24,04,30,4.10
2008,02,24,04,31,4.00
2008,02,24,04,32,4.00
2008,02,24,04,33,4.10
2008,02,24,04,34,4.10
2008,02,24,04,35,4.10
2008,02,24,04,36,4.10
2008,02,24,04,37,4.10
2008,02,24,04,38,4.10
2008,02,24,04,39,4.20
2008,02,24,04,40,4.20
2008,02,24,04,41,4.20
2008,02,24,04,42,4.20
2008,02,24,04,43,4.20
2008,02,24,04,44,4.30
2008,02,24,04,45,4.30
2008,02,24,04,46,4.30
2008,02,24,04,47,4.50
2008,02,24,04,48,4.60
2008,02,24,04,49,4.60
2008,02,24,04,50,4.70
2008,02,24,04,51,4.80
2008,02,24,04,52,4.80
2008,02,24,04,53,4.90
2008,02,24,04,54,5.00
2008,02,24,04,55,4.80
2008,02,24,04,56,4.70
2008,02,24,04,57,4.40
2008,02,24,04,58,4.20
2008,02,24,04,59,3.90
2008,02,24,05,00,3.70
2008,02,24,05,01,3.50
2008,02,24,05,02,3.40
2008,02,24,05,03,3.30
2008,02,24,05,04,3.20
2008,02,24,05,05,3.20
2008,02,24,05,06,3.20
2008,02,24,05,07,3.20
2008,02,24,05,08,3.40
2008,02,24,05,09,3.50
2008,02,24,05,10,3.60
2008,02,24,05,11,3.60
2008,02,24,05,12,3.70
2008,02,24,05,13,3.70
2008,02,24,05,14,3.80
2008,02,24,05,15,3.80
2008,02,24,05,16,3.80
2008,02,24,05,17,3.90
2008,02,24,05,18,3.90
2008,02,24,05,19,3.90
2008,02,24,05,20,3.80
2008,02,24,05,21,3.80
2008,02,24,05,22,3.80
2008,02,24,05,23,3.70
2008,02,24,05,24,3.70
2008,02,24,05,25,3.70
2008,02,24,05,26,3.70
2008,02,24,05,27,3.70
2008,02,24,05,28,3.80
2008,02,24,05,29,3.80
2008,02,24,05,30,3.90
2008,02,24,05,31,4.10
2008,02,24,05,32,4.20
2008,02,24,05,33,4.20
2008,02,24,05,34,4.30
2008,02,24,05,35,4.30
2008,02,24,05,36,4.30
2008,02,24,05,37,4.20
2008,02,24,05,38,4.20
2008,02,24,05,39,4.10
2008,02,24,05,40,4.00
2008,02,24,05,41,3.80
2008,02,24,05,42,3.70
2008,02,24,05,43,3.60
2008,02,24,05,44,3.50
2008,02,24,05,45,3.40
2008,02,24,05,46,3.40
2008,02,24,05,47,3.40
2008,02,24,05,48,3.40
2008,02,24,05,49,3.40
2008,02,24,05,50,3.40
2008,02,24,05,51,3.40
2008,02,24,05,52,3.40
2008,02,24,05,53,3.50
2008,02,24,05,54,3.50
2008,02,24,05,55,3.50
2008,02,24,05,56,3.50
2008,02,24,05,57,3.60
2008,02,24,05,58,3.60
2008,02,24,05,59,3.70
2008,02,24,06,00,3.70
2008,02,24,06,01,3.70
2008,02,24,06,02,3.80
2008,02,24,06,03,3.80
2008,02,24,06,04,3.90
2008,02,24,06,05,3.90
2008,02,24,06,06,3.90
2008,02,24,06,07,3.90
2008,02,24,06,08,4.00
2008,02,24,06,09,4.00
2008,02,24,06,10,4.00
2008,02,24,06,11,4.00
2008,02,24,06,12,4.00
2008,02,24,06,13,4.00
2008,02,24,06,14,3.90
2008,02,24,06,15,3.90
2008,02,24,06,16,3.90
2008,02,24,06,17,3.90
2008,02,24,06,18,4.00
2008,02,24,06,19,4.00
2008,02,24,06,20,4.00
2008,02,24,06,21,4.00
2008,02,24,06,22,4.00
2008,02,24,06,23,3.90
2008,02,24,06,24,3.90
2008,02,24,06,25,3.90
2008,02,24,06,26,3.90
2008,02,24,06,27,3.80
2008,02,24,06,28,3.80
2008,02,24,06,29,3.80
2008,02,24,06,30,3.70
2008,02,24,06,31,3.70
2008,02,24,06,32,3.70
2008,02,24,06,33,3.70
2008,02,24,06,34,3.70
2008,02,24,06,35,3.70
2008,02,24,06,36,3.70
2008,02,24,06,37,3.70
2008,02,24,06,38,3.70
2008,02,24,06,39,3.70
2008,02,24,06,40,3.70
2008,02,24,06,41,3.70
2008,02,24,06,42,3.70
2008,02,24,06,43,3.70
2008,02,24,06,44,3.70
2008,02,24,06,45,3.70
2008,02,24,06,46,3.70
2008,02,24,06,47,3.70
2008,02,24,06,48,3.70
2008,02,24,06,49,3.70
2008,02,24,06,50,3.70
2008,02,24,06,51,3.70
2008,02,24,06,52,3.70
2008,02,24,06,53,3.70
2008,02,24,06,54,3.60
2008,02,24,06,55,3.60
2008,02,24,06,56,3.50
2008,02,24,06,57,3.40
2008,02,24,06,58,3.30
2008,02,24,06,59,3.20
2008,02,24,07,00,3.10
2008,02,24,07,01,3.10
2008,02,24,07,02,3.00
2008,02,24,07,03,3.00
2008,02,24,07,04,3.00
2008,02,24,07,05,3.00
2008,02,24,07,06,3.00
2008,02,24,07,07,3.00
2008,02,24,07,08,3.00
2008,02,24,07,09,3.00
2008,02,24,07,10,3.10
2008,02,24,07,11,3.10
2008,02,24,07,12,3.10
2008,02,24,07,13,3.10
2008,02,24,07,14,3.10
2008,02,24,07,15,3.20
2008,02,24,07,16,3.20
2008,02,24,07,17,3.20
2008,02,24,07,18,3.30
2008,02,24,07,19,3.30
2008,02,24,07,20,3.30
2008,02,24,07,21,3.40
2008,02,24,07,22,3.50
2008,02,24,07,23,3.50
2008,02,24,07,24,3.60
2008,02,24,07,25,3.70
2008,02,24,07,26,3.70
2008,02,24,07,27,3.80
2008,02,24,07,28,3.80
2008,02,24,07,29,3.90
2008,02,24,07,30,4.00
2008,02,24,07,31,4.10
2008,02,24,07,32,4.10
2008,02,24,07,33,4.20
2008,02,24,07,34,4.20
2008,02,24,07,35,4.30
2008,02,24,07,36,4.30
2008,02,24,07,37,4.30
2008,02,24,07,38,4.20
2008,02,24,07,39,4.10
2008,02,24,07,40,4.10
2008,02,24,07,41,4.10
2008,02,24,07,42,4.00
2008,02,24,07,43,4.00
2008,02,24,07,44,4.00
2008,02,24,07,45,4.00
2008,02,24,07,46,4.00
2008,02,24,07,47,4.10
2008,02,24,07,48,4.10
2008,02,24,07,49,4.20
2008,02,24,07,50,4.30
2008,02,24,07,51,4.30
2008,02,24,07,52,4.40
2008,02,24,07,53,4.40
2008,02,24,07,54,4.50
2008,02,24,07,55,4.40
2008,02,24,07,56,4.40
2008,02,24,07,57,4.40
2008,02,24,07,58,4.40
2008,02,24,07,59,4.30
2008,02,24,08,00,4.30
2008,02,24,08,01,4.20
2008,02,24,08,02,4.10
2008,02,24,08,03,4.10
2008,02,24,08,04,4.10
2008,02,24,08,05,4.20
2008,02,24,08,06,4.20
2008,02,24,08,07,4.30
2008,02,24,08,08,4.40
2008,02,24,08,09,4.50
2008,02,24,08,10,4.70
2008,02,24,08,11,4.80
2008,02,24,08,12,5.00
2008,02,24,08,13,5.10
2008,02,24,08,14,5.30
2008,02,24,08,15,5.40
2008,02,24,08,16,5.50
2008,02,24,08,17,5.60
2008,02,24,08,18,5.70
2008,02,24,08,19,5.80
2008,02,24,08,20,5.80
2008,02,24,08,21,5.80
2008,02,24,08,22,5.70
2008,02,24,08,23,5.60
2008,02,24,08,24,5.50
2008,02,24,08,25,5.40
2008,02,24,08,26,5.20
2008,02,24,08,27,5.00
2008,02,24,08,28,4.80
2008,02,24,08,29,4.70
2008,02,24,08,30,4.60
2008,02,24,08,31,4.50
2008,02,24,08,32,4.40
2008,02,24,08,33,4.40
2008,02,24,08,34,4.40
2008,02,24,08,35,4.40
2008,02,24,08,36,4.50
2008,02,24,08,37,4.50
2008,02,24,08,38,4.60
2008,02,24,08,39,4.70
2008,02,24,08,40,4.80
2008,02,24,08,41,4.80
2008,02,24,08,42,4.90
2008,02,24,08,43,5.00
2008,02,24,08,44,5.10
2008,02,24,08,45,5.20
2008,02,24,08,46,5.30
2008,02,24,08,47,5.40
2008,02,24,08,48,5.50
2008,02,24,08,49,5.60
2008,02,24,08,50,5.60
2008,02,24,08,51,5.80
2008,02,24,08,52,5.80
2008,02,24,08,53,6.00
2008,02,24,08,54,6.10
2008,02,24,08,55,6.10
2008,02,24,08,56,6.20
2008,02,24,08,57,6.30
2008,02,24,08,58,6.30
2008,02,24,08,59,6.40
2008,02,24,09,00,6.50
2008,02,24,09,01,6.70
2008,02,24,09,02,6.70
2008,02,24,09,03,6.90
2008,02,24,09,04,7.00
2008,02,24,09,05,7.10
2008,02,24,09,06,7.20
2008,02,24,09,07,7.20
2008,02,24,09,08,7.20
2008,02,24,09,09,7.20
2008,02,24,09,10,7.30
2008,02,24,09,11,7.30
2008,02,24,09,12,7.30
2008,02,24,09,13,7.20
2008,02,24,09,14,7.10
2008,02,24,09,15,7.00
2008,02,24,09,16,6.90
2008,02,24,09,17,6.90
2008,02,24,09,18,6.90
2008,02,24,09,19,6.90
2008,02,24,09,20,6.90
2008,02,24,09,21,6.80
2008,02,24,09,22,6.80
2008,02,24,09,23,6.90
2008,02,24,09,24,7.00
2008,02,24,09,25,7.10
2008,02,24,09,26,7.20
2008,02,24,09,27,7.30
2008,02,24,09,28,7.30
2008,02,24,09,29,7.30
2008,02,24,09,30,7.30
2008,02,24,09,31,7.30
2008,02,24,09,32,7.20
2008,02,24,09,33,7.20
2008,02,24,09,34,7.20
2008,02,24,09,35,7.20
2008,02,24,09,36,7.30
2008,02,24,09,37,7.30
2008,02,24,09,38,7.30
2008,02,24,09,39,7.40
2008,02,24,09,40,7.40
2008,02,24,09,41,7.40
2008,02,24,09,42,7.50
2008,02,24,09,43,7.50
2008,02,24,09,44,7.60
2008,02,24,09,45,7.60
2008,02,24,09,46,7.50
2008,02,24,09,47,7.50
2008,02,24,09,48,7.40
2008,02,24,09,49,7.40
2008,02,24,09,50,7.40
2008,02,24,09,51,7.40
2008,02,24,09,52,7.50
2008,02,24,09,53,7.50
2008,02,24,09,54,7.50
2008,02,24,09,55,7.60
2008,02,24,09,56,7.60
2008,02,24,09,57,7.70
2008,02,24,09,58,7.70
2008,02,24,09,59,7.70
2008,02,24,10,00,7.80
2008,02,24,10,01,7.90
2008,02,24,10,02,8.00
2008,02,24,10,03,8.00
2008,02,24,10,04,8.10
2008,02,24,10,05,8.20
2008,02,24,10,06,8.30
2008,02,24,10,07,8.40
2008,02,24,10,08,8.40
2008,02,24,10,09,8.40
2008,02,24,10,10,8.50
2008,02,24,10,11,8.50
2008,02,24,10,12,8.50
2008,02,24,10,13,8.50
2008,02,24,10,14,8.60
2008,02,24,10,15,8.70
2008,02,24,10,16,8.80
2008,02,24,10,17,8.90
2008,02,24,10,18,9.00
2008,02,24,10,19,9.10
2008,02,24,10,20,9.20
2008,02,24,10,21,9.30
2008,02,24,10,22,9.40
2008,02,24,10,23,9.50
2008,02,24,10,24,9.60
2008,02,24,10,25,9.70
2008,02,24,10,26,9.70
2008,02,24,10,27,9.70
2008,02,24,10,28,9.70
2008,02,24,10,29,9.70
2008,02,24,10,30,9.80
2008,02,24,10,31,9.80
2008,02,24,10,32,9.80
2008,02,24,10,33,9.80
2008,02,24,10,34,9.80
2008,02,24,10,35,9.80
2008,02,24,10,36,9.80
2008,02,24,10,37,9.90
2008,02,24,10,38,9.90
2008,02,24,10,39,10.00
2008,02,24,10,40,10.10
2008,02,24,10,41,10.20
2008,02,24,10,42,10.20
2008,02,24,10,43,10.20
2008,02,24,10,44,10.20
2008,02,24,10,45,10.20
2008,02,24,10,46,10.30
2008,02,24,10,47,10.30
2008,02,24,10,48,10.30
2008,02,24,10,49,10.20
2008,02,24,10,50,10.20
2008,02,24,10,51,10.10
2008,02,24,10,52,10.10
2008,02,24,10,53,10.10
2008,02,24,10,54,10.20
2008,02,24,10,55,10.20
2008,02,24,10,56,10.30
2008,02,24,10,57,10.30
2008,02,24,10,58,10.30
2008,02,24,10,59,10.20
2008,02,24,11,00,10.10
2008,02,24,11,01,10.00
2008,02,24,11,02,9.90
2008,02,24,11,03,9.80
2008,02,24,11,04,9.90
2008,02,24,11,05,9.90
2008,02,24,11,06,9.90
2008,02,24,11,07,9.90
2008,02,24,11,08,9.90
2008,02,24,11,09,9.80
2008,02,24,11,10,9.80
2008,02,24,11,11,9.80
2008,02,24,11,12,9.80
2008,02,24,11,13,9.90
2008,02,24,11,14,10.00
2008,02,24,11,15,10.10
2008,02,24,11,16,10.10
2008,02,24,11,17,10.20
2008,02,24,11,18,10.20
2008,02,24,11,19,10.20
2008,02,24,11,20,10.20
2008,02,24,11,21,10.30
2008,02,24,11,22,10.30
2008,02,24,11,23,10.40
2008,02,24,11,24,10.40
2008,02,24,11,25,10.30
2008,02,24,11,26,10.20
2008,02,24,11,27,10.10
2008,02,24,11,28,10.00
2008,02,24,11,29,9.90
2008,02,24,11,30,9.80
2008,02,24,11,31,9.80
2008,02,24,11,32,9.70
2008,02,24,11,33,9.60
2008,02,24,11,34,9.40
2008,02,24,11,35,9.30
2008,02,24,11,36,9.10
2008,02,24,11,37,8.90
2008,02,24,11,38,8.80
2008,02,24,11,39,8.80
2008,02,24,11,40,8.80
2008,02,24,11,41,8.80
2008,02,24,11,42,8.80
2008,02,24,11,43,8.90
2008,02,24,11,44,8.90
2008,02,24,11,45,9.00
2008,02,24,11,46,9.00
2008,02,24,11,47,9.10
2008,02,24,11,48,9.20
2008,02,24,11,49,9.20
2008,02,24,11,50,9.10
2008,02,24,11,51,9.00
2008,02,24,11,52,9.00
2008,02,24,11,53,9.00
2008,02,24,11,54,9.10
2008,02,24,11,55,9.10
2008,02,24,11,56,9.10
2008,02,24,11,57,9.20
2008,02,24,11,58,9.20
2008,02,24,11,59,9.30
2008,02,24,12,00,9.40
2008,02,24,12,01,9.40
2008,02,24,12,02,9.50
2008,02,24,12,03,9.50
2008,02,24,12,04,9.50
2008,02,24,12,05,9.50
2008,02,24,12,06,9.50
2008,02,24,12,07,9.50
2008,02,24,12,08,9.50
2008,02,24,12,09,9.60
2008,02,24,12,10,9.60
2008,02,24,12,11,9.60
2008,02,24,12,12,9.60
2008,02,24,12,13,9.60
2008,02,24,12,14,9.60
2008,02,24,12,15,9.70
2008,02,24,12,16,9.80
2008,02,24,12,17,9.90
2008,02,24,12,18,10.00
2008,02,24,12,19,10.00
2008,02,24,12,20,10.10
2008,02,24,12,21,10.20
2008,02,24,12,22,10.30
2008,02,24,12,23,10.30
2008,02,24,12,24,10.30
2008,02,24,12,25,10.30
2008,02,24,12,26,10.30
2008,02,24,12,27,10.40
2008,02,24,12,28,10.50
2008,02,24,12,29,10.60
2008,02,24,12,30,10.70
2008,02,24,12,31,10.60
2008,02,24,12,32,10.70
2008,02,24,12,33,10.80
2008,02,24,12,34,10.80
2008,02,24,12,35,10.90
2008,02,24,12,36,11.00
2008,02,24,12,37,11.10
2008,02,24,12,38,11.20
2008,02,24,12,39,11.20
2008,02,24,12,40,11.30
2008,02,24,12,41,11.30
2008,02,24,12,42,11.30
2008,02,24,12,43,11.40
2008,02,24,12,44,11.40
2008,02,24,12,45,11.40
2008,02,24,12,46,11.40
2008,02,24,12,47,11.40
2008,02,24,12,48,11.50
2008,02,24,12,49,11.50
2008,02,24,12,50,11.50
2008,02,24,12,51,11.60
2008,02,24,12,52,11.60
2008,02,24,12,53,11.60
2008,02,24,12,54,11.70
2008,02,24,12,55,11.70
2008,02,24,12,56,11.70
2008,02,24,12,57,11.80
2008,02,24,12,58,11.80
2008,02,24,12,59,11.90
2008,02,24,13,00,11.90
2008,02,24,13,01,12.00
2008,02,24,13,02,12.00
2008,02,24,13,03,11.90
2008,02,24,13,04,11.90
2008,02,24,13,05,11.90
2008,02,24,13,06,11.80
2008,02,24,13,07,11.70
2008,02,24,13,08,11.70
2008,02,24,13,09,11.70
2008,02,24,13,10,11.80
2008,02,24,13,11,11.80
2008,02,24,13,12,11.90
2008,02,24,13,13,11.90
2008,02,24,13,14,12.00
2008,02,24,13,15,12.00
2008,02,24,13,16,12.00
2008,02,24,13,17,12.00
2008,02,24,13,18,12.10
2008,02,24,13,19,12.10
2008,02,24,13,20,12.20
2008,02,24,13,21,12.10
2008,02,24,13,22,12.00
2008,02,24,13,23,12.00
2008,02,24,13,24,12.00
2008,02,24,13,25,12.00
2008,02,24,13,26,11.90
2008,02,24,13,27,11.90
2008,02,24,13,28,11.90
2008,02,24,13,29,12.00
2008,02,24,13,30,12.00
2008,02,24,13,31,12.10
2008,02,24,13,32,12.20
2008,02,24,13,33,12.20
2008,02,24,13,34,12.20
2008,02,24,13,35,12.20
2008,02,24,13,36,12.20
2008,02,24,13,37,12.20
2008,02,24,13,38,12.20
2008,02,24,13,39,12.20
2008,02,24,13,40,12.20
2008,02,24,13,41,12.30
2008,02,24,13,42,12.30
2008,02,24,13,43,12.40
2008,02,24,13,44,12.40
2008,02,24,13,45,12.50
2008,02,24,13,46,12.50
2008,02,24,13,47,12.50
2008,02,24,13,48,12.40
2008,02,24,13,49,12.40
2008,02,24,13,50,12.40
2008,02,24,13,51,12.40
2008,02,24,13,52,12.30
2008,02,24,13,53,12.30
2008,02,24,13,54,12.30
2008,02,24,13,55,12.30
2008,02,24,13,56,12.30
2008,02,24,13,57,12.30
2008,02,24,13,58,12.20
2008,02,24,13,59,12.20
2008,02,24,14,00,12.20
2008,02,24,14,01,12.20
2008,02,24,14,02,12.20
2008,02,24,14,03,12.30
2008,02,24,14,04,12.30
2008,02,24,14,05,12.20
2008,02,24,14,06,12.30
2008,02,24,14,07,12.30
2008,02,24,14,08,12.30
2008,02,24,14,09,12.20
2008,02,24,14,10,12.10
2008,02,24,14,11,12.10
2008,02,24,14,12,12.10
2008,02,24,14,13,12.10
2008,02,24,14,14,12.10
2008,02,24,14,15,12.00
2008,02,24,14,16,12.00
2008,02,24,14,17,11.90
2008,02,24,14,18,11.90
2008,02,24,14,19,11.90
2008,02,24,14,20,11.90
2008,02,24,14,21,11.90
2008,02,24,14,22,11.80
2008,02,24,14,23,11.90
2008,02,24,14,24,11.80
2008,02,24,14,25,11.80
2008,02,24,14,26,11.80
2008,02,24,14,27,11.80
2008,02,24,14,28,11.80
2008,02,24,14,29,11.80
2008,02,24,14,30,11.80
2008,02,24,14,31,11.80
2008,02,24,14,32,11.80
2008,02,24,14,33,11.80
2008,02,24,14,34,11.80
2008,02,24,14,35,11.90
2008,02,24,14,36,11.90
2008,02,24,14,37,11.90
2008,02,24,14,38,11.90
2008,02,24,14,39,11.80
2008,02,24,14,40,11.80
2008,02,24,14,41,11.80
2008,02,24,14,42,11.90
2008,02,24,14,43,11.90
2008,02,24,14,44,11.90
2008,02,24,14,45,12.00
2008,02,24,14,46,12.10
2008,02,24,14,47,12.10
2008,02,24,14,48,12.20
2008,02,24,14,49,12.30
2008,02,24,14,50,12.40
2008,02,24,14,51,12.50
2008,02,24,14,52,12.50
2008,02,24,14,53,12.60
2008,02,24,14,54,12.60
2008,02,24,14,55,12.60
2008,02,24,14,56,12.50
2008,02,24,14,57,12.40
2008,02,24,14,58,12.40
2008,02,24,14,59,12.30
2008,02,24,15,00,12.30
2008,02,24,15,01,12.20
2008,02,24,15,02,12.20
2008,02,24,15,03,12.10
2008,02,24,15,04,12.10
2008,02,24,15,05,12.20
2008,02,24,15,06,12.20
2008,02,24,15,07,12.20
2008,02,24,15,08,12.20
2008,02,24,15,09,12.20
2008,02,24,15,10,12.20
2008,02,24,15,11,12.20
2008,02,24,15,12,12.20
2008,02,24,15,13,12.20
2008,02,24,15,14,12.10
2008,02,24,15,15,11.90
2008,02,24,15,16,11.60
2008,02,24,15,17,11.40
2008,02,24,15,18,11.10
2008,02,24,15,19,10.90
2008,02,24,15,20,10.80
2008,02,24,15,21,10.80
2008,02,24,15,22,10.80
2008,02,24,15,23,10.80
2008,02,24,15,24,10.80
2008,02,24,15,25,10.80
2008,02,24,15,26,10.80
2008,02,24,15,27,10.80
2008,02,24,15,28,10.80
2008,02,24,15,29,10.80
2008,02,24,15,30,10.80
2008,02,24,15,31,10.80
2008,02,24,15,32,10.80
2008,02,24,15,33,10.80
2008,02,24,15,34,10.70
2008,02,24,15,35,10.70
2008,02,24,15,36,10.70
2008,02,24,15,37,10.70
2008,02,24,15,38,10.80
2008,02,24,15,39,10.80
2008,02,24,15,40,10.80
2008,02,24,15,41,10.90
2008,02,24,15,42,10.90
2008,02,24,15,43,10.90
2008,02,24,15,44,10.90
2008,02,24,15,45,10.90
2008,02,24,15,46,10.90
2008,02,24,15,47,10.90
2008,02,24,15,48,10.90
2008,02,24,15,49,10.90
2008,02,24,15,50,10.90
2008,02,24,15,51,10.90
2008,02,24,15,52,10.90
2008,02,24,15,53,10.90
2008,02,24,15,54,10.90
2008,02,24,15,55,11.00
2008,02,24,15,56,11.10
2008,02,24,15,57,11.10
2008,02,24,15,58,11.10
2008,02,24,15,59,11.10
2008,02,24,16,00,11.10
2008,02,24,16,01,11.20
2008,02,24,16,02,11.20
2008,02,24,16,03,11.20
2008,02,24,16,04,11.20
2008,02,24,16,05,11.20
2008,02,24,16,06,11.20
2008,02,24,16,07,11.10
2008,02,24,16,08,11.10
2008,02,24,16,09,11.10
2008,02,24,16,10,11.10
2008,02,24,16,11,11.00
2008,02,24,16,12,11.00
2008,02,24,16,13,10.90
2008,02,24,16,14,10.90
2008,02,24,16,15,10.80
2008,02,24,16,16,10.80
2008,02,24,16,17,10.80
2008,02,24,16,18,10.80
2008,02,24,16,19,10.80
2008,02,24,16,20,10.70
2008,02,24,16,21,10.60
2008,02,24,16,22,10.60
2008,02,24,16,23,10.50
2008,02,24,16,24,10.50
2008,02,24,16,25,10.40
2008,02,24,16,26,10.40
2008,02,24,16,27,10.40
2008,02,24,16,28,10.40
2008,02,24,16,29,10.50
2008,02,24,16,30,10.50
2008,02,24,16,31,10.50
2008,02,24,16,32,10.60
2008,02,24,16,33,10.60
2008,02,24,16,34,10.70
2008,02,24,16,35,10.80
2008,02,24,16,36,10.80
2008,02,24,16,37,10.80
2008,02,24,16,38,10.90
2008,02,24,16,39,10.90
2008,02,24,16,40,10.90
2008,02,24,16,41,11.00
2008,02,24,16,42,11.00
2008,02,24,16,43,11.00
2008,02,24,16,44,11.00
2008,02,24,16,45,11.00
2008,02,24,16,46,11.00
2008,02,24,16,47,11.00
2008,02,24,16,48,11.10
2008,02,24,16,49,11.10
2008,02,24,16,50,11.20
2008,02,24,16,51,11.20
2008,02,24,16,52,11.30
2008,02,24,16,53,11.30
2008,02,24,16,54,11.30
2008,02,24,16,55,11.30
2008,02,24,16,56,11.30
2008,02,24,16,57,11.30
2008,02,24,16,58,11.30
2008,02,24,16,59,11.30
2008,02,24,17,00,11.20
2008,02,24,17,01,11.20
2008,02,24,17,02,11.20
2008,02,24,17,03,11.10
2008,02,24,17,04,11.10
2008,02,24,17,05,11.10
2008,02,24,17,06,11.00
2008,02,24,17,07,10.90
2008,02,24,17,08,10.90
2008,02,24,17,09,10.80
2008,02,24,17,10,10.80
2008,02,24,17,11,10.70
2008,02,24,17,12,10.60
2008,02,24,17,13,10.60
2008,02,24,17,14,10.50
2008,02,24,17,15,10.40
2008,02,24,17,16,10.30
2008,02,24,17,17,10.20
2008,02,24,17,18,10.20
2008,02,24,17,19,10.10
2008,02,24,17,20,10.00
2008,02,24,17,21,9.90
2008,02,24,17,22,9.80
2008,02,24,17,23,9.80
2008,02,24,17,24,9.80
2008,02,24,17,25,9.70
2008,02,24,17,26,9.70
2008,02,24,17,27,9.70
2008,02,24,17,28,9.70
2008,02,24,17,29,9.70
2008,02,24,17,30,9.80
2008,02,24,17,31,9.80
2008,02,24,17,32,9.80
2008,02,24,17,33,9.80
2008,02,24,17,34,9.80
2008,02,24,17,35,9.80
2008,02,24,17,36,9.70
2008,02,24,17,37,9.70
2008,02,24,17,38,9.70
2008,02,24,17,39,9.70
2008,02,24,17,40,9.70
2008,02,24,17,41,9.70
2008,02,24,17,42,9.70
2008,02,24,17,43,9.70
2008,02,24,17,44,9.60
2008,02,24,17,45,9.60
2008,02,24,17,46,9.60
2008,02,24,17,47,9.60
2008,02,24,17,48,9.60
2008,02,24,17,49,9.50
2008,02,24,17,50,9.50
2008,02,24,17,51,9.50